Theta_e
347 346 346 346 346 346 346 347 347 347 347 344 341 340 341 341 342 343 345 346 346 346 344 343 342 340 339 339 339 339 339 341 342 342 342 342 342 342 342 342 343 344 344 345 345 345 343 342 340 339 339 339 340 343 343 343 344 345 345 345 345 346 346 346 345 344 344 342 341 341 340 340 340 341 341 340 339 339 339 340 339 337 336 335 336
347 346 346 346 347 347 347 347 348 348 347 345 342 341 340 341 342 343 344 345 346 345 343 343 344 342 340 340 339 339 339 340 342 342 342 342 343 342 343 343 343 344 344 344 344 344 343 342 342 341 340 340 340 341 343 343 343 344 345 345 346 346 346 346 345 344 345 343 342 343 342 342 341 340 340 341 340 341 341 340 338 336 334 336 339
347 346 346 346 346 347 347 347 348 348 347 346 344 341 340 341 342 342 343 344 345 346 344 344 346 345 343 341 340 339 339 340 341 342 342 341 342 342 343 344 343 343 343 343 344 343 342 342 343 342 341 341 341 342 342 343 344 344 345 346 346 347 347 346 344 344 346 344 344 345 344 344 344 340 339 340 340 340 341 340 339 335 334 338 341
346 346 347 346 346 346 347 347 348 348 347 346 344 342 340 341 341 342 344 343 344 346 344 345 347 346 343 342 341 341 340 341 341 341 341 341 341 341 342 344 343 343 343 343 343 343 342 342 342 342 342 342 342 342 342 343 345 345 346 346 347 349 349 347 344 345 345 345 346 346 345 345 347 343 340 339 339 340 339 339 338 334 334 339 341
346 346 347 347 346 346 347 347 347 347 345 344 344 342 340 341 341 342 344 343 344 346 345 346 347 346 344 342 343 343 342 341 341 341 341 341 341 341 342 342 342 343 343 343 343 343 342 342 342 342 343 343 343 343 343 344 345 345 346 347 346 348 349 347 346 345 345 346 346 346 347 347 347 345 343 340 339 340 339 338 337 333 334 339 341
345 346 346 346 346 346 346 346 347 345 343 343 344 343 342 342 341 342 344 344 344 346 346 346 348 347 346 345 344 344 342 341 341 341 341 342 341 341 341 341 342 343 344 344 343 343 343 343 342 342 343 343 343 344 344 344 346 346 346 347 347 347 347 347 347 345 345 346 345 344 345 345 345 344 344 343 340 339 340 339 337 335 336 338 339
345 345 345 346 346 346 346 346 346 344 343 343 345 345 344 344 343 342 343 344 344 346 347 347 348 348 347 347 346 345 344 342 341 341 342 342 342 343 343 342 342 343 344 344 344 343 343 343 343 343 343 343 343 344 344 345 346 346 347 348 348 347 347 347 346 345 345 346 346 344 343 343 343 343 343 343 343 341 340 340 339 339 339 338 338
345 345 345 345 345 345 345 345 345 344 344 344 344 345 345 346 346 344 343 343 343 345 347 347 347 348 348 348 347 347 346 344 342 342 342 343 343 344 344 343 342 343 344 345 345 343 343 343 342 342 343 343 344 344 344 345 346 346 348 348 348 347 347 347 346 345 346 346 346 345 343 343 343 343 343 343 343 343 342 341 341 340 340 339 339
345 345 345 345 345 345 345 345 345 344 344 344 344 345 345 346 347 345 342 342 342 343 346 346 347 348 349 349 348 348 348 347 345 342 342 343 344 344 345 344 343 343 345 345 345 344 343 342 341 340 341 343 344 344 343 344 344 345 347 348 348 347 347 347 346 344 345 347 346 345 344 344 343 343 343 342 342 343 344 343 342 340 341 340 339
345 345 344 344 344 345 345 345 345 344 343 343 344 345 345 346 347 344 341 341 341 342 344 345 346 346 348 349 349 349 349 349 347 345 342 342 344 344 344 345 344 343 344 345 345 344 344 342 340 339 340 342 344 343 343 343 344 345 346 348 348 346 346 346 346 345 345 346 346 345 345 344 344 343 343 343 341 341 342 344 343 342 342 340 339
345 345 345 344 344 344 345 345 345 344 344 343 344 345 344 345 346 344 342 339 339 340 341 342 344 345 346 348 350 349 349 349 348 347 345 342 343 344 344 345 345 345 344 344 344 344 344 342 339 338 339 342 343 343 343 343 343 345 346 347 347 346 346 346 346 346 345 346 346 346 345 344 344 344 344 342 341 341 341 344 345 343 343 342 339
345 344 344 344 344 344 344 345 345 345 344 343 344 345 344 344 345 345 343 340 337 337 339 339 340 342 343 346 349 349 349 349 348 349 347 344 343 343 345 345 345 346 345 345 344 344 344 343 341 339 339 341 342 342 342 342 343 344 345 346 346 346 346 346 346 346 346 346 347 346 346 346 345 344 345 344 342 342 340 343 345 342 344 344 341
344 344 344 344 344 344 344 345 345 345 344 343 343 344 344 344 344 345 344 339 335 334 336 337 337 338 340 344 347 348 349 349 349 349 349 347 344 342 343 344 345 346 345 345 345 344 344 343 342 340 340 340 341 341 342 343 343 344 344 345 346 346 347 347 346 346 346 346 347 347 347 349 347 345 345 345 344 344 342 344 345 342 345 346 342
344 344 344 344 344 344 344 344 344 344 344 343 343 343 344 344 344 345 344 342 338 335 335 335 335 335 337 341 345 347 348 349 349 349 349 348 346 342 340 341 343 344 344 345 345 345 344 343 342 341 341 340 341 341 342 343 343 343 343 344 346 347 348 347 346 345 346 345 346 346 348 350 349 346 346 347 347 348 347 346 344 343 346 346 344
343 344 343 344 344 344 344 343 343 344 344 344 343 343 343 343 344 344 344 344 342 340 336 334 334 334 335 338 342 346 348 348 348 348 348 348 347 344 340 340 342 342 344 345 345 345 345 344 343 342 341 341 341 341 342 343 343 343 344 344 346 347 347 347 345 343 343 344 344 344 345 348 348 346 346 347 347 348 348 348 346 345 347 348 346
342 343 343 343 343 343 343 343 343 343 344 343 342 343 343 343 343 344 344 344 344 343 340 336 335 334 334 335 339 344 347 348 348 348 348 347 348 347 344 343 344 343 343 344 345 344 345 344 343 342 342 342 341 342 342 343 343 344 345 345 346 347 347 346 343 341 341 341 342 342 342 346 346 346 346 346 347 347 347 347 347 346 347 348 348
342 342 342 342 341 342 342 342 343 343 343 343 342 342 342 342 343 343 343 344 344 343 342 339 337 334 334 333 335 340 344 347 347 347 347 347 348 348 348 347 347 345 344 344 344 344 344 345 344 344 344 343 343 343 343 344 344 345 346 347 348 348 347 345 343 341 340 340 340 340 341 342 343 344 345 346 346 346 346 347 347 347 346 347 349
342 342 341 341 340 340 341 341 342 342 342 342 341 341 342 342 342 342 343 343 344 344 343 342 340 336 334 333 333 336 339 343 346 347 346 347 347 348 349 349 349 346 345 345 344 344 344 344 345 345 345 345 346 346 345 345 345 346 347 348 348 348 347 346 345 343 342 341 340 340 340 340 340 343 345 346 346 346 346 346 346 346 346 346 347
344 341 340 340 340 340 341 341 341 342 342 342 342 342 342 342 342 342 342 342 343 343 343 342 342 339 335 333 333 334 335 338 343 346 346 345 346 347 347 349 349 348 346 345 345 344 343 344 344 345 346 346 347 347 347 346 346 346 347 347 347 348 348 348 347 345 344 343 343 342 341 340 340 341 343 345 345 344 344 345 345 346 346 346 345
347 343 340 339 339 340 340 341 341 341 342 342 342 342 342 342 342 342 343 343 343 343 342 341 341 339 336 334 333 333 334 335 339 344 346 345 345 345 345 346 348 348 347 346 346 345 344 343 343 343 344 345 346 347 347 347 346 346 346 346 346 346 346 347 346 346 345 345 345 344 343 343 342 342 342 343 344 343 343 344 345 346 346 346 345
349 347 344 340 339 338 338 339 340 341 342 342 341 342 342 342 342 342 342 343 343 343 342 340 339 338 336 335 333 333 333 334 335 340 344 345 345 344 343 344 345 346 347 347 346 346 345 344 344 344 344 344 344 346 347 347 346 345 345 345 344 344 344 345 344 344 344 344 345 345 345 344 344 343 343 344 345 346 346 346 346 347 346 345 345
349 349 349 346 343 340 339 338 338 339 341 341 341 342 342 342 342 342 342 342 343 343 343 340 338 338 338 337 336 334 334 334 334 336 340 342 343 342 342 343 343 344 345 345 345 345 345 345 345 345 346 345 344 345 348 348 346 345 344 344 343 343 344 343 342 343 343 343 344 344 345 345 344 344 343 344 346 347 348 349 349 348 347 345 344
346 347 349 350 348 345 342 339 338 339 339 340 341 341 342 342 342 342 342 342 342 343 344 342 338 338 338 337 337 335 334 334 334 334 336 338 340 340 340 340 341 342 343 343 344 344 343 344 344 345 346 346 345 346 347 347 347 346 344 343 343 342 342 342 342 342 342 342 343 343 343 343 344 344 343 343 343 344 345 346 347 347 347 346 345
345 345 347 348 349 348 345 341 339 339 339 339 340 341 342 342 342 342 342 341 342 343 344 344 342 341 340 340 339 338 336 335 334 334 334 335 337 337 337 337 338 340 340 341 342 342 342 342 342 344 345 345 346 346 346 346 346 345 344 343 342 341 341 341 340 340 341 342 342 342 342 342 343 343 343 343 343 342 342 342 342 342 342 342 342
347 347 347 347 349 349 348 345 342 341 340 340 340 341 342 343 343 343 342 342 343 343 343 344 344 344 344 344 344 343 341 338 335 335 334 334 335 335 336 336 336 337 337 338 338 339 341 341 342 343 344 344 345 346 346 345 345 344 343 341 340 340 340 339 338 338 337 338 339 339 340 341 341 341 340 341 341 341 341 341 341 339 338 338 339
350 349 349 349 349 350 349 348 346 344 342 341 340 341 342 344 343 343 343 343 343 344 344 344 345 345 346 346 346 346 345 343 339 337 335 335 334 334 334 335 335 336 337 337 336 335 336 337 339 341 342 343 344 345 345 345 344 343 342 341 340 339 339 338 336 335 335 335 335 336 337 337 338 337 337 337 337 337 338 338 337 336 335 335 336
351 351 351 351 351 350 350 349 347 345 343 342 341 342 342 343 344 343 344 344 344 344 344 344 344 345 346 347 347 347 346 346 344 340 336 335 334 333 333 333 334 335 336 337 336 334 333 333 335 338 340 341 342 344 345 345 344 344 344 343 342 341 339 338 336 335 335 335 334 334 335 334 334 335 335 335 334 334 334 333 333 333 333 333 334
351 351 351 352 351 351 350 349 348 346 344 343 343 343 343 343 344 344 344 345 344 343 343 344 343 344 345 346 346 346 346 346 347 345 342 339 337 335 334 333 333 333 334 334 334 334 333 332 332 334 337 340 341 342 344 345 345 346 345 345 344 344 343 341 340 340 339 339 338 336 336 335 334 334 334 334 334 333 332 330 330 330 331 332 333
349 349 350 351 351 351 351 350 349 348 347 346 346 346 346 345 345 346 346 346 345 344 344 344 344 344 345 345 345 346 346 346 347 347 347 346 343 339 337 335 334 334 333 333 333 333 333 333 332 332 333 337 339 339 340 343 345 346 346 346 346 345 344 344 343 343 343 342 342 341 340 339 339 338 338 338 338 339 338 336 334 333 333 332 331
348 348 350 350 350 351 351 350 351 350 350 350 349 349 349 348 347 347 347 346 345 345 346 346 345 344 345 345 345 346 346 347 346 347 348 349 349 347 345 342 339 336 334 334 333 334 334 334 333 333 332 333 334 335 337 340 343 345 346 347 347 346 345 345 344 344 344 344 343 343 343 343 343 343 343 343 343 343 343 342 341 341 340 338 335
346 347 348 349 349 350 350 350 350 350 351 351 350 350 350 350 350 350 350 348 346 347 350 349 348 346 346 346 346 346 346 347 349 348 347 348 350 351 351 349 346 343 340 337 335 335 337 336 335 334 332 332 332 333 334 336 339 342 345 347 347 346 346 345 344 344 344 344 344 344 344 344 344 344 344 345 344 344 344 344 345 344 344 344 343
344 345 347 348 348 348 348 349 349 349 350 350 350 350 350 350 351 351 350 349 348 349 350 350 350 349 349 349 349 349 348 348 350 351 350 349 350 352 352 352 350 349 348 346 343 340 340 340 340 338 337 337 336 334 332 333 337 341 344 346 346 346 346 345 344 344 343 343 343 344 344 344 344 344 344 345 345 345 345 345 345 345 345 346 346
342 343 344 346 347 346 346 346 347 348 349 349 349 349 349 349 348 348 348 348 349 349 349 349 350 350 351 350 351 351 350 350 351 351 352 352 352 353 353 353 352 351 351 351 350 347 346 346 347 346 345 344 342 338 335 334 336 340 344 345 345 346 346 345 345 344 344 344 344 343 343 344 343 343 343 344 344 344 345 345 345 346 346 346 346
341 341 342 344 344 344 344 344 345 346 346 346 347 347 347 346 345 345 345 345 347 348 348 348 348 349 349 350 350 350 350 350 351 351 352 353 353 353 353 353 353 352 351 351 351 351 351 351 352 351 350 349 346 343 339 337 337 340 342 344 345 345 346 345 345 345 345 345 344 344 343 342 342 342 342 342 343 343 344 345 345 345 346 346 346
340 340 340 341 341 340 341 342 342 342 342 342 343 343 343 342 342 343 343 342 343 345 345 345 345 346 347 348 348 349 349 349 350 350 351 351 352 352 352 352 352 352 351 351 351 352 352 353 353 352 351 351 349 346 344 341 340 341 342 343 345 345 345 346 345 345 345 345 345 345 345 344 344 343 343 343 343 343 343 344 344 345 346 346 346
339 337 337 337 336 335 335 336 335 333 334 336 338 338 338 338 339 340 340 340 341 341 342 342 342 342 343 343 343 344 345 347 348 349 350 350 350 350 350 350 351 350 351 351 351 351 351 351 352 352 351 350 349 349 347 346 345 344 344 344 345 345 346 346 346 346 346 345 345 345 346 346 345 345 345 344 344 343 343 343 343 343 344 344 345
339 337 334 332 330 329 328 328 326 324 324 327 330 332 334 337 338 339 339 339 339 339 339 338 338 338 338 338 339 339 340 342 343 344 345 346 346 347 348 348 348 348 348 349 350 350 351 351 351 351 351 350 350 350 349 349 348 348 347 346 346 346 345 345 346 347 347 347 347 347 346 346 346 345 345 345 344 344 344 344 344 344 344 344 344
338 334 331 328 325 325 323 322 321 320 319 320 321 322 325 329 332 333 333 333 333 333 334 334 333 333 333 333 335 336 337 338 339 340 341 341 341 343 345 345 344 344 345 346 347 348 349 350 350 351 350 350 350 350 349 349 349 349 348 348 348 348 347 347 347 348 348 348 349 349 349 348 348 347 346 346 346 345 345 345 345 346 346 345 345
334 330 328 327 326 325 324 323 322 322 321 320 320 319 319 320 321 322 323 323 325 327 329 329 329 330 331 333 335 336 336 336 337 337 338 339 339 340 340 340 339 340 340 340 342 344 347 349 349 350 350 350 350 350 350 351 351 350 349 349 349 350 350 350 351 351 351 351 351 351 351 351 350 350 350 349 349 348 348 347 347 348 348 348 348
331 329 328 328 327 326 325 323 321 320 320 318 317 316 315 315 316 316 316 317 320 322 323 324 324 325 327 331 334 336 335 335 336 336 336 337 337 337 337 337 337 337 337 337 338 341 343 344 344 345 346 348 349 349 349 350 350 350 350 350 350 351 351 351 352 352 352 352 353 353 353 353 352 352 352 351 351 351 350 350 349 350 350 350 350
331 330 329 328 327 324 321 318 317 315 315 314 313 312 310 311 311 312 312 312 314 316 318 320 320 321 321 323 325 328 330 331 333 335 335 335 336 336 336 336 336 336 337 337 336 336 337 336 336 336 338 340 341 342 343 344 345 346 347 348 349 349 349 349 350 350 351 352 352 352 353 353 352 352 352 352 352 352 352 351 352 352 352 351 352
331 330 329 327 325 320 316 315 315 314 314 313 312 310 309 309 309 309 309 309 310 312 313 315 316 317 318 318 318 320 321 323 326 330 333 335 336 337 337 337 337 337 337 336 334 333 332 332 331 330 330 330 331 333 335 337 339 340 342 344 345 346 346 347 348 349 349 350 350 351 351 351 351 351 351 351 351 350 351 351 351 352 352 352 352
329 329 328 327 324 320 317 316 315 315 314 312 310 309 309 309 308 308 308 308 309 310 310 311 312 312 313 315 316 317 317 318 320 324 329 332 334 335 335 335 336 336 335 334 333 332 332 333 332 331 329 328 327 327 327 329 330 332 333 335 336 337 338 340 342 344 345 345 346 347 348 349 349 350 350 350 350 350 350 350 350 351 352 351 351
326 327 328 327 324 320 318 316 315 314 312 311 310 309 309 309 309 308 308 308 309 309 309 309 310 310 311 311 312 313 314 315 315 317 320 325 328 331 332 332 332 332 332 331 331 331 331 332 332 331 329 328 326 324 324 324 324 325 326 326 327 328 328 330 332 334 335 336 337 338 340 342 344 345 346 346 347 348 350 350 351 352 352 351 351
325 326 327 326 322 318 315 314 312 311 310 310 309 309 309 308 308 308 308 307 307 307 307 307 308 308 308 309 310 310 311 312 313 314 314 316 319 322 324 326 327 327 327 327 327 327 327 327 326 325 324 323 322 321 320 321 321 322 322 322 323 323 323 324 326 327 328 329 329 330 331 333 334 335 336 337 339 341 344 345 347 347 348 348 348
323 324 324 322 318 315 313 312 310 309 309 309 308 308 308 307 307 307 307 307 307 307 307 307 307 307 306 307 308 309 309 311 312 312 312 312 313 315 317 318 319 320 320 321 322 322 322 322 320 320 319 318 317 317 317 317 317 318 318 320 321 322 323 324 326 327 327 327 328 328 328 328 328 329 329 329 330 332 334 336 338 340 341 344 345
321 321 320 318 316 314 312 311 310 309 308 307 306 306 306 306 306 306 306 306 306 306 306 306 306 306 306 306 306 307 308 310 312 313 314 313 312 313 314 314 315 315 315 316 316 316 316 316 316 315 315 315 314 315 314 314 315 315 316 318 319 321 322 324 325 327 327 327 327 327 327 327 328 328 329 330 330 330 330 332 333 334 337 340 341
319 319 318 317 316 314 312 311 310 309 308 307 306 306 306 306 306 306 306 306 305 305 305 306 306 306 306 306 306 306 307 310 313 316 319 319 318 318 317 316 315 316 315 315 315 314 314 314 314 313 313 313 313 313 313 313 314 314 314 315 316 317 318 319 321 322 322 323 324 324 325 325 326 327 328 329 329 330 330 330 331 332 334 335 336
319 318 317 316 315 313 312 311 310 309 309 308 307 306 306 306 306 305 305 306 305 305 306 306 306 307 306 306 306 306 307 312 317 320 321 321 322 321 321 319 317 317 316 316 316 316 316 315 315 315 314 314 313 313 313 312 313 312 312 313 313 313 313 313 314 315 315 316 317 318 319 320 321 322 323 324 325 326 327 327 328 328 329 330 330
318 316 316 315 314 313 312 311 310 310 309 308 307 307 306 306 306 306 306 306 306 306 306 306 306 307 307 307 308 308 308 313 319 322 321 321 321 321 321 321 320 319 318 317 318 318 318 318 317 317 316 315 315 314 314 313 313 313 313 313 313 313 312 312 312 312 312 312 313 313 313 314 315 315 317 318 318 319 320 321 322 323 324 325 326
317 316 316 315 314 313 312 311 310 309 309 309 309 308 308 307 306 306 306 306 306 307 307 308 309 309 308 308 309 310 309 312 317 320 321 321 321 321 321 320 320 319 319 318 318 318 319 319 319 319 318 317 316 316 315 315 315 315 314 314 314 314 314 313 313 313 313 313 313 312 312 312 312 312 312 312 313 313 313 314 315 316 317 319 321
Wind_Speed
16 16 15 14 14 13 13 13 12 11 11 12 12 13 13 12 13 12 12 12 11 10 11 11 11 11 10 9 9 8 9 10 10 10 11 11 10 10 10 9 8 8 8 7 6 6 7 7 7 7 6 6 5 5 5 4 4 3 4 4 4 4 5 6 6 7 8 8 9 9 9 8 7 6 6 6 5 4 5 6 6 7 7 8 8
16 17 16 15 14 13 13 13 13 13 13 13 13 13 13 13 13 13 12 11 10 9 10 10 9 9 9 8 8 8 9 10 10 10 10 11 11 10 10 9 8 7 7 7 6 6 7 7 7 7 7 6 6 6 5 4 3 3 3 4 4 3 4 6 7 8 9 9 10 9 8 8 8 7 7 7 6 5 5 6 6 7 7 8 9
17 17 17 16 15 14 13 13 13 13 13 14 14 13 14 14 14 13 12 11 10 10 11 10 8 9 10 9 9 8 9 9 9 10 10 10 10 10 10 9 8 8 7 7 7 7 7 7 7 7 7 7 6 6 5 4 3 3 3 4 4 4 4 5 7 8 8 8 9 9 8 8 8 8 9 7 7 6 5 5 6 7 8 9 10
19 17 16 17 16 15 14 14 13 13 14 15 15 15 15 15 14 13 12 11 10 10 11 10 9 9 11 12 11 10 10 10 10 10 9 9 9 10 10 9 9 9 9 8 7 7 7 7 7 8 8 7 6 5 5 4 4 3 3 3 4 4 4 5 6 8 9 9 9 9 10 10 8 8 10 9 9 7 6 5 5 7 8 9 9
20 17 17 17 17 16 15 14 14 14 15 17 17 16 15 14 14 13 11 11 12 11 12 11 10 10 12 13 13 12 12 12 11 11 10 9 9 9 9 9 10 10 10 9 9 8 8 8 8 8 8 8 7 6 5 5 4 4 3 3 4 4 4 4 5 6 7 9 10 9 8 8 8 8 9 10 10 9 7 6 5 7 8 7 7
20 18 18 18 17 17 16 15 15 14 16 17 17 16 16 15 14 13 12 12 13 13 12 12 11 11 12 12 13 13 12 12 11 11 10 10 9 9 9 9 10 10 9 9 8 8 8 8 8 8 8 8 7 6 6 6 6 4 4 3 3 3 3 4 4 4 5 7 9 9 8 7 9 10 9 8 9 10 9 8 6 6 6 5 5
21 20 19 18 18 18 17 17 16 16 16 16 16 15 15 15 14 13 12 12 14 14 13 12 12 12 11 11 11 10 9 9 10 10 10 9 9 8 8 9 9 10 9 8 8 8 8 8 8 8 8 8 7 7 6 6 6 5 4 3 3 3 2 3 3 3 4 5 7 9 9 8 9 11 11 9 8 9 9 8 6 5 5 5 5
23 23 21 20 19 19 18 18 17 17 17 16 15 15 14 15 14 14 13 13 14 15 14 13 12 12 11 11 10 9 7 7 8 10 10 10 9 8 8 8 9 10 9 9 8 8 8 8 9 9 9 8 8 7 7 7 6 5 4 3 3 2 2 1 1 1 2 4 6 7 7 7 7 9 9 9 8 8 8 8 7 4 4 4 3
25 24 23 22 21 20 19 18 18 18 17 17 16 14 14 14 14 14 14 14 14 16 15 14 13 11 10 10 10 9 8 7 8 9 10 10 9 9 9 8 9 9 9 9 9 8 8 9 9 10 10 9 8 7 7 7 6 5 5 4 3 2 1 0 0 1 1 2 4 5 5 5 6 7 7 8 7 7 7 8 7 5 4 4 3
27 26 25 23 22 21 21 20 19 19 18 18 17 15 14 15 15 15 14 14 15 16 16 15 13 12 10 10 10 9 9 9 9 9 9 10 9 9 9 9 8 8 8 8 9 9 9 9 10 10 10 9 9 8 7 7 6 6 5 5 4 3 2 1 1 2 1 1 2 3 4 4 5 5 6 6 6 6 6 7 7 6 5 4 3
30 29 28 26 24 23 23 22 21 21 20 19 18 16 15 16 17 16 15 15 15 16 15 15 14 13 12 11 10 10 10 10 10 9 9 9 9 9 8 8 8 7 7 7 8 8 8 9 10 10 10 9 9 8 8 7 6 6 5 5 5 4 4 3 3 3 3 2 2 2 3 4 4 4 4 4 4 4 4 5 6 6 6 5 4
31 31 29 27 27 26 26 25 24 23 22 20 19 18 17 17 17 17 16 15 16 16 15 15 14 13 13 12 12 11 11 10 9 8 7 8 8 9 8 8 8 8 8 7 7 7 8 8 9 10 9 9 9 9 9 8 7 6 5 5 6 5 5 4 5 5 5 4 4 4 4 3 3 3 3 3 3 2 3 4 4 5 5 6 5
31 32 30 29 29 28 28 27 26 26 24 22 20 19 19 18 18 18 17 16 16 16 16 15 15 14 14 14 14 13 11 10 9 7 6 6 7 8 8 8 8 8 7 7 6 7 7 7 8 9 9 9 9 9 9 8 7 6 6 6 5 6 6 6 6 7 7 6 6 6 5 4 4 3 2 2 2 2 2 3 3 4 4 5 6
32 32 31 30 30 29 29 28 26 26 26 24 22 21 20 19 18 18 17 17 16 15 15 15 15 15 14 15 15 14 12 10 9 8 6 6 6 7 7 7 7 6 6 6 6 6 6 7 7 8 8 8 8 9 9 8 7 7 6 6 5 6 7 7 7 7 8 8 8 8 7 6 6 5 3 2 2 3 3 3 3 4 3 4 5
32 32 32 32 31 30 30 29 27 27 27 26 24 22 21 19 18 18 18 18 17 16 15 15 15 15 14 15 15 15 13 10 10 8 7 6 6 7 7 7 6 5 5 6 6 6 6 7 7 7 7 8 8 8 8 8 7 7 6 6 6 7 7 7 7 8 9 9 10 10 9 8 8 7 5 4 3 3 3 4 5 5 5 5 6
31 32 32 32 32 31 30 30 28 28 28 27 25 23 21 20 18 18 17 17 17 16 15 14 14 14 14 14 15 14 13 11 10 9 7 7 7 7 7 6 5 5 6 6 6 6 6 7 7 7 8 7 7 7 8 8 7 7 6 6 6 7 7 7 8 8 8 9 10 10 10 9 9 9 8 7 6 6 6 6 7 8 8 8 8
31 31 32 32 31 31 30 30 30 30 29 27 25 23 22 20 18 17 17 17 17 16 15 14 13 14 14 14 14 14 13 12 11 10 8 7 7 7 7 6 6 6 6 6 6 6 6 7 7 7 8 7 7 7 7 7 7 7 6 6 6 7 7 8 8 8 9 9 9 9 9 10 10 10 9 10 9 9 9 9 9 10 10 10 9
28 29 30 31 31 30 29 30 30 29 28 27 25 24 23 21 18 17 16 16 16 16 16 15 14 14 14 14 14 14 14 12 11 10 9 8 7 7 7 7 6 6 7 7 7 7 7 7 7 7 7 7 7 7 7 7 7 7 7 6 6 7 7 7 8 8 9 9 9 9 10 10 10 10 10 11 11 11 11 12 12 12 12 12 11
23 25 27 28 29 29 29 30 30 29 29 27 26 26 24 22 20 18 17 15 15 15 16 16 15 14 14 14 14 14 14 13 12 12 11 9 8 7 7 7 6 6 7 8 8 7 7 7 7 7 7 7 6 6 6 6 7 7 7 6 7 7 7 7 8 9 9 9 9 9 10 9 10 10 11 12 13 13 13 13 13 13 13 13 13
19 21 23 25 27 28 28 29 30 30 29 28 28 28 26 23 21 20 18 17 15 15 15 16 16 15 14 14 15 15 15 14 13 13 12 10 9 8 7 8 7 7 7 7 7 7 7 7 7 7 7 7 7 7 6 6 7 7 6 6 7 7 7 8 8 9 9 9 9 9 9 9 9 10 11 12 13 13 14 13 13 13 13 13 14
15 16 19 22 24 26 27 28 28 29 30 29 29 29 27 25 22 21 20 18 17 15 15 16 17 16 15 14 15 15 15 15 15 14 13 12 10 9 8 8 9 8 8 7 7 7 7 7 8 8 8 9 9 8 7 7 7 7 7 7 7 7 7 7 8 8 8 8 9 9 9 9 9 10 10 11 11 12 12 13 12 13 13 13 14
15 14 15 18 21 23 25 26 27 28 29 30 30 30 29 26 24 22 20 19 18 16 15 15 16 16 16 15 14 15 15 15 15 15 15 13 12 11 10 9 10 10 9 9 8 7 8 8 9 9 9 9 9 9 8 8 8 8 8 7 7 7 7 7 7 7 7 8 9 9 9 9 9 10 10 10 11 11 11 11 11 12 12 12 13
19 17 16 16 18 20 23 25 26 27 27 28 29 30 29 27 25 23 21 19 17 16 15 14 15 15 15 15 15 14 15 15 15 16 15 15 14 13 12 11 10 10 10 10 9 9 9 9 9 10 10 10 10 10 9 9 9 8 8 8 8 8 8 8 8 8 7 8 9 9 8 8 9 10 10 10 11 11 11 11 11 12 12 12 12
23 24 22 19 17 18 20 23 25 25 26 26 27 28 29 28 26 25 23 20 18 17 16 14 13 13 13 13 13 14 14 15 16 16 16 16 16 15 13 12 11 11 11 10 10 10 10 10 10 10 10 10 10 10 10 10 9 9 9 9 9 9 9 9 9 9 9 9 10 10 9 9 10 10 10 11 11 12 12 12 13 12 12 13 13
25 26 26 24 22 20 20 21 23 24 24 25 25 27 28 28 27 26 25 23 20 19 17 16 15 14 13 13 13 13 13 14 16 17 17 17 17 17 16 15 14 13 12 11 11 11 10 11 11 10 10 10 10 10 10 10 10 10 10 9 9 9 9 9 10 10 10 11 11 11 10 10 11 11 11 11 12 12 13 13 13 13 13 13 13
22 23 25 26 25 23 22 22 22 23 23 23 24 25 26 26 25 25 26 25 23 21 20 19 18 18 17 16 15 14 14 14 15 17 18 18 18 18 18 17 16 15 14 13 13 12 12 12 12 12 12 11 10 10 10 9 9 10 10 10 10 10 10 10 10 11 11 11 12 12 12 12 12 13 13 13 13 13 14 14 14 14 13 12 13
17 19 22 24 24 23 24 25 23 22 22 22 23 23 24 24 22 23 25 26 24 23 22 21 20 19 19 19 18 17 17 16 15 16 17 18 19 19 19 19 18 17 17 16 15 15 15 14 14 13 13 12 11 11 10 9 9 9 9 9 9 9 10 10 10 10 10 10 11 12 12 12 13 13 13 13 13 13 13 14 14 14 13 13 13
17 17 19 21 23 23 23 23 21 21 21 22 22 23 23 23 23 24 25 26 26 26 25 24 22 21 21 21 20 19 18 18 16 16 17 18 19 19 20 20 20 19 19 18 18 17 17 16 16 16 15 14 13 12 11 10 10 9 9 9 9 9 9 9 8 8 8 9 10 11 11 12 12 12 12 12 12 13 13 14 14 14 14 14 14
16 17 17 18 21 24 23 22 20 20 21 20 21 22 22 22 23 23 23 24 25 25 26 26 25 23 23 22 22 21 20 19 18 17 17 17 18 19 20 20 20 21 21 20 19 19 18 18 18 17 17 16 15 14 13 12 11 11 10 10 10 10 10 10 9 9 9 8 9 9 10 11 11 11 11 11 11 12 13 14 14 14 14 15 15
16 17 17 18 20 22 23 23 21 20 19 20 20 20 20 21 22 22 21 21 22 22 22 24 25 26 25 24 22 21 19 19 20 20 19 18 18 18 19 19 20 21 21 21 20 20 20 20 19 19 19 19 18 17 16 14 13 12 12 12 12 12 12 12 11 11 10 10 10 10 11 11 10 10 11 11 11 12 12 13 14 14 14 15 16
14 16 16 17 19 20 20 21 21 19 19 21 21 19 19 19 19 18 18 20 22 22 20 21 23 26 26 25 23 22 21 20 20 21 21 21 20 19 18 18 19 20 21 21 21 21 20 20 20 20 20 19 19 19 18 17 16 15 14 14 14 14 14 14 14 14 13 12 12 13 13 13 13 12 12 13 13 13 13 13 13 13 14 14 15
13 15 17 18 18 19 19 20 20 19 19 19 19 16 16 16 15 15 15 18 21 23 22 22 23 25 26 25 23 22 23 23 21 21 22 23 22 20 19 19 19 20 20 21 22 22 21 20 20 20 20 20 20 20 20 19 18 18 17 16 15 15 15 16 16 16 15 15 15 15 16 16 16 15 15 15 15 14 14 14 15 14 14 14 15
13 13 18 20 19 19 19 19 20 19 17 15 14 14 14 13 11 9 9 12 15 17 18 18 20 22 22 23 22 23 24 25 24 23 23 23 23 21 20 20 20 21 22 22 23 22 21 20 19 20 20 20 21 21 20 20 19 19 18 17 16 16 16 16 17 17 17 17 17 17 17 18 17 17 17 17 17 17 17 17 17 17 16 16 15
16 17 22 23 21 20 20 21 20 19 18 17 16 15 13 10 10 11 12 13 15 14 12 10 11 12 14 15 17 20 21 22 22 22 21 22 22 21 21 21 21 22 23 24 24 23 22 20 20 21 20 21 21 21 20 20 20 19 19 18 17 17 17 17 17 18 19 19 19 19 19 19 18 18 18 18 19 19 19 19 20 20 19 19 18
23 23 25 25 24 23 23 22 21 20 20 21 19 18 16 14 13 13 14 15 16 14 12 11 10 10 10 10 11 13 14 13 13 13 14 16 17 18 18 19 19 20 21 22 22 22 22 22 22 22 21 22 23 22 21 21 21 20 19 19 19 19 19 19 19 19 20 20 21 21 22 21 21 20 20 20 20 21 22 22 22 22 22 22 21
26 24 23 22 22 23 23 21 20 19 20 21 20 19 18 17 15 15 17 17 17 16 15 13 12 11 11 10 8 7 7 7 7 7 8 9 9 10 11 12 13 13 13 13 14 16 18 21 22 22 23 25 25 24 23 23 22 22 21 21 21 21 21 21 21 21 21 21 22 22 23 23 23 22 22 22 22 22 23 24 25 25 25 25 25
23 20 20 20 20 21 21 21 21 22 21 21 19 18 18 18 16 16 17 18 17 17 16 14 13 12 11 10 9 8 7 5 5 5 5 6 6 6 6 6 7 6 6 6 7 10 14 16 17 18 21 23 24 24 24 24 23 23 22 22 22 23 23 24 23 23 23 23 23 23 23 24 24 24 24 24 24 24 24 25 26 26 27 28 28
22 22 22 22 21 21 21 21 22 22 21 19 18 17 17 17 16 15 15 16 17 17 15 14 13 12 11 10 9 9 9 8 8 8 7 5 4 4 5 5 5 4 4 3 2 5 8 11 13 16 18 19 20 21 21 21 20 20 20 20 20 20 22 23 24 24 25 25 26 26 25 26 26 27 27 27 27 27 27 27 27 27 28 29 29
22 23 24 23 22 21 20 20 21 21 19 17 14 13 14 15 14 13 13 14 15 15 15 14 13 12 11 10 9 9 10 9 9 10 10 8 7 7 6 5 3 2 1 1 2 4 7 9 11 12 12 13 14 15 15 15 16 17 17 17 17 17 19 21 22 23 23 25 26 26 27 27 27 27 28 28 28 28 28 28 28 28 29 30 30
21 21 21 21 20 20 18 18 18 18 17 14 12 10 11 12 12 10 10 12 13 13 13 13 12 11 11 10 9 9 9 9 9 9 9 8 7 8 8 7 6 5 4 2 2 5 7 7 8 8 8 9 11 12 12 13 14 15 15 15 15 15 16 18 19 20 20 21 21 20 21 24 25 25 26 27 26 27 27 27 27 28 29 29 30
21 20 19 19 18 17 17 16 16 16 14 12 10 9 9 9 8 7 8 9 10 10 10 10 10 9 9 8 8 8 8 8 8 8 8 7 6 6 6 5 5 5 5 4 3 2 2 2 1 1 2 4 5 6 8 9 10 11 12 12 13 13 14 15 16 18 19 19 19 19 19 22 24 24 25 25 25 25 26 26 27 27 27 27 28
20 18 18 17 16 15 15 15 14 13 11 9 7 6 6 7 6 5 6 6 7 7 7 7 7 7 7 6 6 6 6 6 7 6 6 6 6 4 3 4 4 4 4 4 4 3 1 1 2 3 3 3 3 4 5 7 8 8 8 9 10 11 12 12 14 15 17 18 18 18 18 20 21 21 22 22 22 23 24 24 25 25 25 25 25
19 18 16 15 15 14 13 13 12 10 8 6 5 4 4 4 4 3 4 4 4 4 4 4 4 5 5 6 6 5 5 5 5 6 6 6 6 6 5 5 5 5 4 3 3 2 0 2 3 4 5 6 6 6 7 7 8 9 9 9 9 9 10 10 11 13 14 15 15 16 16 17 18 19 19 19 19 20 19 19 20 20 21 23 23
19 18 16 14 12 12 11 10 9 7 6 4 3 2 2 1 2 2 2 3 3 3 3 3 3 3 3 3 4 4 5 6 6 6 6 6 7 6 6 6 6 6 5 5 4 3 3 4 5 5 6 7 8 8 8 7 8 8 8 9 9 10 9 9 10 11 12 12 13 13 14 14 15 16 16 16 16 17 17 18 18 18 20 22 23
19 18 17 14 11 8 8 7 7 6 5 4 3 2 1 1 1 1 2 2 3 3 3 3 3 3 4 4 3 3 4 4 6 6 7 7 8 7 7 7 7 7 7 7 7 6 6 6 6 6 7 7 8 8 8 9 9 9 9 9 10 10 10 10 9 9 10 10 11 11 11 12 12 13 13 13 13 14 15 16 17 18 19 20 21
21 19 17 14 10 8 6 5 4 4 3 3 2 2 2 2 2 2 2 3 3 4 4 4 4 4 4 4 4 4 4 4 4 5 6 6 7 7 7 7 7 7 7 7 8 8 8 8 8 8 7 7 8 8 8 8 9 9 9 9 10 10 10 10 10 10 10 10 11 11 11 12 12 12 13 13 13 13 14 15 16 17 15 13 13
22 20 17 13 10 7 5 3 2 2 2 2 2 2 2 2 2 2 2 3 4 4 5 5 5 5 5 4 4 5 5 5 4 4 4 5 5 5 6 6 6 6 6 6 7 7 7 7 8 8 8 8 8 8 8 8 8 8 8 8 8 9 9 9 9 9 10 10 10 11 11 12 12 13 13 13 13 14 14 15 15 15 14 12 11
23 19 15 11 8 5 3 3 4 3 3 2 2 2 2 1 1 1 1 2 3 4 4 5 5 5 4 4 4 4 4 4 4 3 2 2 2 2 3 4 4 4 5 5 5 5 5 5 6 6 7 8 8 9 9 9 9 9 9 9 9 9 9 10 10 10 10 11 11 11 12 12 12 12 13 13 14 14 14 14 14 14 14 14 14
21 17 13 9 6 4 4 5 5 4 3 2 2 1 1 1 1 1 1 1 1 2 3 4 4 4 4 3 3 4 4 4 3 3 3 3 2 1 1 2 3 3 3 4 4 4 4 3 4 4 5 6 7 8 8 9 9 10 10 10 10 11 11 12 12 13 13 13 13 14 14 14 14 14 14 14 15 14 14 14 14 14 14 15 16
17 14 11 9 7 6 5 5 5 4 4 4 4 3 3 3 3 3 3 1 0 1 1 2 3 3 3 3 3 4 5 5 4 4 4 5 5 4 3 3 2 3 3 2 2 3 3 3 3 4 4 4 5 6 6 7 8 9 10 11 11 12 13 13 14 15 15 15 16 16 17 17 17 18 18 18 18 18 18 18 18 17 17 17 18
16 13 11 9 9 7 6 5 5 6 7 7 7 7 7 6 6 5 4 2 2 1 1 1 1 1 1 2 3 3 4 5 6 6 5 5 5 5 5 5 4 4 4 4 3 3 4 4 4 4 5 5 5 5 6 6 7 8 9 10 11 12 13 13 14 15 16 16 17 18 18 19 19 19 20 20 20 20 21 21 21 21 20 21 21
Wind_Direction
190 190 191 195 198 198 198 199 199 197 192 189 190 189 185 183 181 178 177 175 172 171 166 165 167 167 163 162 166 170 167 164 161 160 159 159 159 157 159 158 155 157 155 145 136 135 135 138 137 137 142 149 150 151 159 160 148 131 109 100 100 82 67 56 48 54 56 55 62 68 75 80 77 76 77 76 75 82 102 116 119 112 106 104 100
193 194 195 201 205 205 203 202 201 200 195 191 193 192 188 186 186 184 179 174 170 168 162 156 156 160 160 161 168 171 167 164 162 161 161 161 161 160 161 164 163 161 161 156 145 140 141 141 140 144 151 154 154 157 160 160 154 133 107 97 100 82 63 50 50 59 52 51 64 69 73 74 66 71 75 73 73 77 90 107 113 110 110 109 104
199 197 200 205 209 210 208 205 203 203 198 195 194 193 192 190 190 190 183 175 171 169 166 157 150 155 162 165 168 170 169 165 162 161 160 161 162 161 161 165 166 163 164 163 153 151 150 146 149 153 154 156 158 161 164 163 157 140 114 99 92 68 53 53 60 61 46 47 61 61 65 64 59 68 71 70 78 81 85 97 108 115 120 117 109
202 199 201 206 211 214 212 208 205 206 202 197 195 194 193 194 194 194 187 180 174 170 169 166 158 157 163 167 168 167 169 170 168 164 158 160 163 162 161 161 161 163 166 167 164 163 158 154 160 160 158 162 164 165 167 163 157 148 125 100 85 61 50 61 66 61 50 49 54 51 54 52 41 51 62 67 76 80 82 93 115 128 131 125 114
203 200 200 206 212 214 215 212 208 206 203 198 197 195 193 195 197 196 191 185 179 172 171 170 166 163 165 169 170 169 171 174 174 168 162 163 165 164 164 162 161 164 168 170 170 167 160 160 167 167 167 168 166 167 168 161 158 154 131 99 84 73 67 73 68 58 52 49 49 47 47 42 29 38 58 66 67 72 76 84 115 135 133 123 113
206 204 205 208 213 217 218 215 211 207 201 197 198 197 195 195 197 197 193 187 183 177 172 171 169 169 172 173 173 172 172 174 173 170 166 165 165 166 166 165 164 167 171 172 172 167 162 164 169 172 173 170 168 168 167 163 162 157 137 107 93 93 86 77 67 57 52 47 45 45 43 41 36 39 50 57 60 66 68 73 98 121 121 111 105
210 211 213 214 217 220 219 215 210 207 202 197 197 199 199 197 197 198 193 189 187 183 178 176 173 171 174 178 179 176 169 165 165 164 164 164 166 167 168 168 168 171 175 177 176 171 169 170 172 174 172 170 171 171 167 165 166 162 147 128 116 116 98 75 71 61 51 40 36 38 39 41 40 38 41 44 50 56 57 64 80 97 105 103 99
211 213 214 217 220 220 217 214 209 209 207 201 197 200 201 199 199 199 196 192 191 189 185 182 176 171 174 177 179 177 165 158 160 161 162 164 167 169 172 174 175 176 179 181 180 178 178 176 173 173 174 173 175 174 170 172 173 169 162 156 148 145 121 74 78 82 52 36 26 29 35 36 34 34 35 37 39 41 43 53 63 71 77 78 78
215 216 216 218 221 220 217 215 211 211 211 206 201 201 202 201 200 199 196 194 194 193 191 188 182 177 178 178 177 176 170 165 164 164 164 164 168 174 175 178 180 180 182 184 183 181 181 179 174 175 178 179 180 178 178 183 182 180 184 185 182 181 176 158 198 173 84 32 18 23 30 29 25 25 26 30 35 36 32 35 45 59 58 47 38
219 219 220 220 220 222 222 220 217 215 213 212 209 205 204 203 200 196 193 194 194 195 195 193 189 186 186 183 179 177 175 175 173 170 170 168 172 179 177 176 180 182 183 187 186 184 183 181 177 179 183 184 184 183 185 189 188 189 198 203 205 213 211 223 242 219 207 309 350 13 18 17 18 21 23 26 30 35 29 21 24 33 36 31 27
219 221 225 225 224 227 228 225 222 219 217 216 213 208 204 203 200 194 190 192 194 195 197 197 195 194 192 188 185 179 176 178 178 176 178 177 178 182 180 175 177 180 185 188 189 188 187 184 182 185 188 189 190 189 189 189 190 194 204 211 216 225 227 234 247 240 236 257 290 327 353 1 4 12 18 20 26 33 29 19 14 13 14 10 7
218 221 224 226 226 228 229 227 224 223 221 217 215 209 204 201 200 195 190 190 194 196 199 200 200 199 196 192 188 183 179 179 181 183 188 188 185 185 184 180 179 183 185 187 189 191 192 191 190 191 192 194 196 195 193 193 195 201 210 218 224 233 243 248 249 247 245 254 275 295 317 333 336 348 5 15 27 27 19 18 8 3 8 2 351
217 221 223 224 227 229 228 227 226 225 222 219 216 211 205 202 201 199 192 188 192 196 200 202 203 203 200 196 193 190 186 183 184 186 193 198 196 192 190 187 187 189 188 186 188 191 193 195 196 196 196 197 197 196 196 199 202 210 219 226 232 242 256 266 260 252 248 251 266 281 297 307 299 301 325 351 11 6 1 9 352 350 1 352 340
218 222 222 224 227 229 229 229 227 225 224 223 219 214 209 204 203 204 198 191 192 196 201 204 205 204 202 200 200 198 193 189 189 188 190 202 205 199 194 193 194 195 193 188 189 191 192 192 193 197 200 200 197 196 200 204 209 216 224 229 238 249 261 274 274 263 254 254 260 269 280 290 285 277 282 304 337 348 349 353 337 334 336 329 329
219 221 223 226 228 230 230 230 228 225 224 224 222 217 212 208 207 207 204 199 197 198 201 205 207 206 204 202 202 201 198 195 195 191 191 200 207 204 195 193 196 198 196 193 192 193 191 190 189 193 200 202 202 203 207 210 214 220 228 234 243 256 268 277 277 272 264 260 261 265 268 277 278 271 266 277 290 301 316 324 324 327 325 321 322
218 220 223 226 227 228 229 229 227 225 225 225 224 219 214 211 209 210 210 207 204 204 205 206 209 209 208 206 202 202 202 202 201 197 195 200 207 206 196 190 193 197 200 198 196 195 193 192 191 192 198 201 206 211 215 218 221 225 232 239 246 257 268 274 275 273 272 269 268 268 267 270 273 268 262 265 273 281 291 301 313 320 322 322 322
216 220 223 225 226 227 228 228 226 224 224 225 224 221 217 212 210 211 214 213 211 212 212 212 212 212 212 213 210 208 207 209 210 206 202 202 207 209 206 201 196 195 200 202 204 203 198 197 195 197 201 202 207 215 220 224 226 226 229 239 247 254 261 265 269 271 273 274 273 274 275 274 273 269 264 265 269 277 285 292 301 306 311 316 318
215 219 222 224 225 226 227 227 227 225 225 225 225 225 221 216 213 212 215 217 216 217 219 219 219 218 217 216 216 216 214 215 217 214 210 208 209 213 215 215 208 202 201 204 208 210 206 204 202 202 205 207 212 218 222 226 228 229 233 240 246 250 256 260 265 268 270 270 272 274 277 277 275 270 267 268 270 277 285 290 293 295 299 305 307
207 212 217 220 223 226 227 228 228 227 227 228 228 228 225 219 216 216 217 219 220 222 224 224 223 223 223 221 221 221 220 220 219 218 216 214 215 218 219 218 216 213 209 206 209 213 214 213 211 212 215 217 219 221 226 231 234 238 241 245 248 250 254 257 259 263 265 266 269 273 275 276 273 269 266 267 271 277 284 288 288 290 293 296 299
192 200 208 214 218 223 226 229 231 230 229 230 232 232 228 223 220 219 220 220 220 224 227 226 224 224 224 224 225 223 222 222 222 222 221 219 221 226 226 222 218 220 219 216 218 223 227 226 223 225 228 229 228 226 233 240 242 246 248 250 254 254 253 254 254 256 258 262 266 270 272 273 272 271 268 268 272 277 283 287 289 290 292 292 294
181 189 199 207 213 218 222 226 230 232 232 232 234 234 231 227 222 222 224 223 221 223 226 226 225 224 223 224 226 226 225 224 224 225 225 223 223 225 228 227 223 223 225 226 230 234 238 240 237 236 237 237 233 231 238 248 252 254 255 256 259 257 256 256 254 253 255 261 266 266 265 267 269 270 270 271 275 280 285 290 292 293 294 295 294
188 193 200 206 212 215 218 222 225 229 231 232 235 236 234 229 225 224 226 226 225 225 226 226 225 224 225 225 226 228 228 227 226 227 227 226 226 225 226 228 227 225 226 229 234 237 241 244 243 244 244 241 237 235 242 254 260 262 263 263 264 263 263 263 261 258 258 262 266 265 265 266 269 270 273 274 276 278 282 287 292 295 298 302 300
205 211 215 214 216 219 220 222 223 226 229 231 234 236 236 233 228 226 226 226 226 227 228 226 224 224 226 227 228 229 230 230 230 230 229 230 230 230 229 230 230 228 227 229 232 237 242 244 245 247 247 245 242 242 248 257 262 265 265 265 267 267 267 270 270 267 264 264 266 266 266 268 269 270 273 275 276 277 280 283 287 290 293 298 301
218 223 226 225 224 226 225 224 224 224 227 229 232 235 237 235 230 228 229 228 227 228 231 230 226 224 225 228 232 234 234 234 234 234 233 232 234 234 233 232 233 234 235 234 235 238 240 243 245 246 247 247 245 244 247 251 254 258 260 262 265 266 267 269 270 269 268 267 267 268 267 266 268 270 272 275 277 280 284 287 290 291 291 293 295
217 220 224 224 225 226 227 226 224 223 224 227 230 234 238 237 233 231 232 233 233 233 235 236 236 234 233 234 237 240 241 240 239 239 239 238 238 238 236 235 234 237 241 243 243 243 245 246 247 246 245 245 244 245 247 248 251 253 255 259 263 265 268 269 269 269 269 268 268 268 269 269 271 275 277 279 281 283 286 289 292 296 297 295 292
208 211 213 217 219 220 222 225 226 223 222 224 227 231 235 236 235 234 236 238 239 239 241 241 242 242 241 241 241 241 243 242 241 242 243 243 243 242 240 239 238 239 243 247 250 251 251 252 251 249 246 243 242 244 246 248 249 249 251 256 261 264 267 269 271 273 273 274 273 272 272 272 274 277 280 283 286 288 288 290 291 293 295 296 295
197 201 205 209 211 211 215 220 221 219 218 220 222 224 228 230 229 231 235 237 236 237 241 243 245 246 246 244 242 239 238 238 238 239 240 243 245 245 243 241 241 241 243 247 252 255 256 255 254 252 248 244 241 240 242 241 240 243 248 254 259 264 267 269 272 275 276 277 277 277 278 278 280 282 285 289 292 294 294 293 293 294 294 293 293
186 193 198 203 206 206 209 212 211 211 212 214 216 219 221 223 223 224 229 233 233 233 238 242 246 249 250 248 246 243 241 239 239 239 240 241 243 245 245 244 243 242 243 245 248 251 253 254 253 252 249 245 241 237 237 237 237 241 247 254 260 263 267 270 271 274 277 278 279 280 280 281 284 287 290 292 294 296 297 296 296 298 297 295 294
183 191 194 199 204 205 204 203 202 202 203 204 208 210 212 214 215 215 219 225 230 232 235 240 244 247 249 250 250 249 246 244 243 243 243 243 244 245 247 248 247 246 245 245 245 247 248 248 249 249 248 246 243 239 236 236 241 248 252 258 261 261 264 267 267 268 272 273 275 279 281 283 287 289 290 291 293 296 298 297 298 298 296 295 294
180 187 192 196 202 204 204 203 200 196 194 196 199 200 202 205 208 211 214 221 231 236 236 237 239 242 244 246 248 249 249 247 244 242 242 243 244 245 247 249 251 251 249 247 245 244 245 245 246 246 247 248 248 245 239 235 236 242 249 257 260 261 261 263 264 264 264 265 267 270 274 277 279 283 286 288 290 293 294 295 297 297 296 294 290
170 175 180 186 193 195 196 197 195 190 189 196 198 195 195 200 204 209 214 220 229 234 235 231 230 234 238 240 243 245 245 245 244 241 240 241 244 245 245 247 248 250 251 249 246 243 243 245 246 247 248 250 251 250 246 239 234 232 236 243 248 253 255 255 257 258 257 259 263 267 271 273 272 273 278 280 281 283 285 287 288 289 289 289 288
152 158 162 165 173 177 179 181 182 181 184 192 198 197 198 205 210 214 219 223 225 229 234 235 232 232 234 236 239 240 241 242 243 241 240 241 244 245 245 246 247 248 248 248 247 245 244 246 249 251 251 252 252 253 251 246 240 235 236 240 243 247 250 252 254 255 255 257 259 264 272 275 275 274 277 280 280 279 280 281 279 279 279 280 283
134 138 148 155 159 159 157 158 163 170 174 177 180 183 189 194 190 185 193 200 204 213 224 230 232 233 234 235 235 236 238 240 241 241 240 241 243 245 246 247 249 249 248 247 247 246 245 246 250 253 254 253 253 253 253 250 245 241 242 246 250 252 255 256 257 259 260 261 262 264 268 271 273 274 275 277 278 278 277 277 275 275 274 274 276
134 130 133 138 139 134 131 131 134 139 141 140 140 145 149 142 129 127 134 146 158 171 184 193 204 216 222 221 219 221 226 232 236 238 238 240 242 245 246 247 247 247 247 246 245 245 245 247 250 252 252 253 252 252 251 250 247 244 244 249 255 260 262 264 265 265 265 265 266 267 267 267 269 270 272 274 274 274 273 273 274 274 274 274 275
135 129 125 126 126 123 119 116 114 114 116 116 116 117 116 109 108 114 118 125 134 139 142 147 154 164 173 181 191 200 207 213 220 226 230 233 236 239 240 242 242 243 245 246 246 247 249 250 251 251 250 250 251 251 251 250 248 247 247 250 256 262 266 269 271 271 270 268 267 268 269 269 269 270 273 275 275 274 273 273 273 273 273 274 274
131 127 124 124 124 120 116 114 113 109 105 104 104 105 106 105 106 110 112 115 118 118 119 124 127 130 134 139 147 165 179 186 194 202 211 215 217 221 227 231 236 240 244 246 247 248 249 248 249 249 248 249 251 252 252 253 252 252 252 254 258 263 267 269 272 276 276 275 273 271 272 273 274 275 277 277 277 278 277 277 276 275 275 275 275
133 128 124 121 115 112 111 111 108 104 99 99 102 103 103 105 108 111 113 114 113 111 111 113 112 112 111 110 111 116 124 137 153 164 182 197 200 202 204 207 212 214 216 224 234 242 245 244 242 242 244 247 250 251 253 254 255 256 257 260 262 264 266 266 269 274 278 280 280 279 280 280 280 280 280 280 281 281 281 282 281 280 279 278 279
135 130 126 122 116 113 113 111 108 104 101 101 103 103 104 107 110 114 115 112 110 109 110 109 107 103 98 95 95 96 99 105 112 117 122 135 151 165 174 183 193 197 199 211 247 264 256 243 236 238 243 245 247 249 251 252 253 255 257 261 265 267 268 268 269 272 276 279 280 280 281 282 282 283 283 283 284 284 284 284 284 283 282 281 282
133 131 129 126 124 123 121 119 116 113 109 108 108 108 108 108 110 115 116 111 109 110 112 111 109 108 107 109 109 107 107 110 110 108 107 107 107 109 113 116 121 126 153 234 248 256 252 237 228 230 235 239 243 247 251 253 256 259 262 265 268 268 268 268 271 273 276 277 278 279 279 279 279 280 280 281 281 281 281 280 280 280 280 281 282
139 138 135 131 131 131 130 127 122 117 116 116 117 117 114 109 111 118 118 114 114 117 117 115 115 116 118 121 124 124 122 120 114 111 112 111 105 97 93 89 83 81 83 110 199 228 240 238 230 223 223 231 242 251 259 264 266 269 272 274 275 274 273 275 277 279 280 280 280 279 278 277 276 276 276 277 277 277 276 276 276 277 278 279 281
147 146 143 140 140 138 134 130 123 118 118 117 113 112 110 104 106 112 115 117 121 124 127 127 127 127 125 123 123 125 126 126 122 120 122 122 118 110 103 97 87 85 91 106 127 161 214 237 240 226 225 238 251 265 276 282 283 283 282 282 284 286 287 289 290 289 288 286 281 276 273 273 273 273 273 274 275 275 275 274 274 274 276 278 280
153 151 150 148 147 142 137 131 125 120 117 113 108 105 99 96 101 105 107 112 118 124 133 140 145 151 153 148 141 132 130 131 131 133 141 143 142 144 142 134 129 127 130 129 120 116 106 35 9 3 2 354 345 336 324 318 316 311 303 298 295 292 290 291 291 290 290 287 283 281 280 280 279 277 277 277 279 280 279 277 276 275 275 277 278
158 157 159 159 155 152 146 137 132 129 123 117 112 105 97 98 108 113 115 120 125 131 141 151 160 170 175 175 173 168 162 161 158 160 169 170 169 176 182 176 174 177 178 171 155 149 244 316 324 328 331 332 333 334 332 329 324 320 320 318 312 307 303 299 293 290 290 289 286 285 284 284 283 284 285 286 288 290 288 285 281 278 277 280 283
167 165 167 171 167 162 157 150 143 140 139 135 127 119 110 114 129 141 153 161 168 176 181 188 195 204 211 209 203 193 186 186 189 192 197 200 197 198 198 198 202 207 214 223 232 244 265 281 294 303 308 311 314 314 313 311 307 306 310 313 313 316 317 314 306 301 299 297 294 290 287 284 283 284 286 287 286 286 285 282 280 279 279 282 286
174 173 174 179 180 174 169 165 159 155 156 158 156 161 207 236 200 207 206 204 219 228 229 230 227 227 235 239 241 238 222 205 201 204 210 216 221 226 229 231 235 239 245 253 259 264 270 276 282 287 289 292 295 296 295 294 292 292 294 294 296 301 305 306 305 301 297 295 295 295 294 291 289 287 286 286 283 280 278 277 278 280 283 288 291
177 178 179 180 182 182 178 171 166 165 166 170 173 181 205 226 235 246 242 236 246 252 253 257 257 251 247 242 241 248 249 241 233 227 225 227 229 234 241 249 255 260 262 263 266 269 274 277 280 282 283 284 285 286 287 288 288 289 290 290 290 291 292 294 293 291 290 290 289 290 290 290 289 288 286 287 286 284 282 279 277 277 279 285 293
181 182 182 181 180 180 172 166 175 182 176 176 183 192 209 223 234 246 246 248 253 253 252 254 254 254 253 246 241 242 242 243 246 246 249 253 252 250 254 259 263 268 272 274 272 272 273 275 277 278 279 280 281 281 282 284 284 283 281 281 281 282 283 286 285 284 285 286 286 287 288 289 290 291 291 291 289 288 287 284 282 281 277 272 273
183 184 184 182 180 179 182 194 198 193 186 182 189 211 230 247 268 268 263 264 257 250 246 241 235 235 237 235 236 236 230 228 227 221 229 251 269 272 270 269 269 269 273 277 279 277 272 270 271 272 274 276 277 278 278 278 279 278 277 277 278 280 282 285 287 288 289 291 292 293 292 292 293 292 291 289 287 287 287 288 290 291 286 281 278
181 183 182 179 181 193 212 217 207 192 177 159 141 126 104 65 35 22 12 314 271 253 241 225 211 205 201 203 209 210 208 203 191 187 200 209 214 229 258 272 277 278 277 281 284 285 285 283 279 277 276 277 278 279 281 280 281 282 283 286 289 292 294 295 297 299 301 303 303 303 302 301 301 300 298 297 296 296 297 298 300 302 301 299 297
179 181 180 183 199 215 217 210 192 160 130 115 104 94 91 85 77 78 78 75 301 262 242 222 207 189 174 168 170 181 186 177 161 166 198 219 232 243 256 269 285 292 291 288 281 277 281 286 292 293 295 295 293 292 293 292 292 293 294 296 299 301 303 305 306 308 311 312 312 311 310 309 309 309 309 309 308 307 307 307 307 308 308 308 308
187 192 191 198 210 209 195 178 155 129 113 106 98 92 89 85 80 82 87 95 107 128 166 179 175 156 135 133 141 155 166 169 167 171 188 210 234 253 264 271 275 277 284 293 295 289 285 282 285 293 298 301 303 305 305 305 305 304 304 304 305 307 308 310 311 313 315 316 316 316 316 315 315 314 313 313 313 312 311 311 310 310 310 309 308